TimeEDT,TemperatureF,Dew PointF,Humidity,Sea Level PressureIn,VisibilityMPH,Wind Direction,Wind SpeedMPH,Gust SpeedMPH,PrecipitationIn,Events,Conditions,WindDirDegrees,DateUTC
12:52 AM,32.0,19.9,61,30.11,10.0,WSW,8.1,-,N/A,,Mostly Cloudy,240,2013-03-15 04:52:00
1:52 AM,32.0,21.0,64,30.10,10.0,WSW,10.4,-,N/A,,Partly Cloudy,250,2013-03-15 05:52:00
2:52 AM,32.0,21.9,66,30.07,10.0,SW,5.8,-,N/A,,Overcast,230,2013-03-15 06:52:00
3:52 AM,30.9,21.9,69,30.06,10.0,SW,8.1,-,N/A,,Scattered Clouds,230,2013-03-15 07:52:00
4:52 AM,30.9,24.1,76,30.04,10.0,WSW,9.2,-,N/A,,Partly Cloudy,240,2013-03-15 08:52:00
5:06 AM,30.2,24.8,80,30.01,10.0,WSW,12.7,-,N/A,,Mostly Cloudy,250,2013-03-15 09:06:00
5:52 AM,32.0,27.0,82,30.01,10.0,WSW,16.1,-,N/A,,Overcast,250,2013-03-15 09:52:00
6:52 AM,32.0,27.0,82,29.99,8.0,WSW,11.5,-,N/A,,Overcast,250,2013-03-15 10:52:00
7:52 AM,30.9,28.0,89,29.97,6.0,SW,8.1,-,N/A,,Scattered Clouds,230,2013-03-15 11:52:00
8:18 AM,30.2,28.4,93,29.95,5.0,WSW,11.5,-,N/A,,Partly Cloudy,240,2013-03-15 12:18:00
8:52 AM,32.0,28.0,85,29.98,6.0,WSW,11.5,-,N/A,,Scattered Clouds,240,2013-03-15 12:52:00
9:15 AM,32.0,28.4,87,29.96,6.0,WSW,13.8,-,N/A,,Mostly Cloudy,240,2013-03-15 13:15:00
9:44 AM,33.8,28.4,81,29.94,6.0,WSW,13.8,-,N/A,,Haze,240,2013-03-15 13:44:00
9:52 AM,33.1,28.0,82,29.96,6.0,WSW,12.7,-,N/A,,Haze,240,2013-03-15 13:52:00
10:52 AM,36.0,28.0,73,29.95,7.0,WSW,13.8,-,N/A,,Partly Cloudy,250,2013-03-15 14:52:00
11:52 AM,37.9,28.9,70,29.94,7.0,West,10.4,-,N/A,,Mostly Cloudy,280,2013-03-15 15:52:00
12:52 PM,39.0,28.9,67,29.94,7.0,West,11.5,-,N/A,,Scattered Clouds,260,2013-03-15 16:52:00
1:52 PM,41.0,30.0,65,29.92,8.0,West,10.4,-,N/A,,Scattered Clouds,270,2013-03-15 17:52:00
2:52 PM,43.0,30.9,62,29.90,8.0,West,10.4,-,N/A,,Partly Cloudy,260,2013-03-15 18:52:00
3:38 PM,42.8,30.2,61,29.87,8.0,West,10.4,-,N/A,,Mostly Cloudy,270,2013-03-15 19:38:00
3:52 PM,44.1,30.9,60,29.88,8.0,West,10.4,-,N/A,,Overcast,260,2013-03-15 19:52:00
4:52 PM,44.1,32.0,63,29.88,8.0,West,11.5,-,N/A,,Overcast,260,2013-03-15 20:52:00
5:15 PM,44.6,32.0,61,29.86,8.0,West,5.8,-,N/A,,Overcast,270,2013-03-15 21:15:00
5:52 PM,43.0,33.1,68,29.87,7.0,West,6.9,-,0.00,Rain,Light Rain,270,2013-03-15 21:52:00
6:35 PM,42.8,35.6,76,29.85,7.0,West,4.6,-,0.00,Rain,Light Rain,270,2013-03-15 22:35:00
6:52 PM,43.0,35.1,74,29.87,6.0,West,3.5,-,0.00,Rain,Light Rain,260,2013-03-15 22:52:00
7:52 PM,42.1,36.0,79,29.87,5.0,NNE,3.5,-,0.02,Rain,Light Rain,30,2013-03-15 23:52:00
8:52 PM,39.9,37.0,89,29.88,4.0,Calm,Calm,-,0.02,Rain,Light Rain,0,2013-03-16 00:52:00
9:52 PM,39.9,37.0,89,29.87,3.0,ENE,5.8,-,0.02,Rain,Light Rain,70,2013-03-16 01:52:00
10:01 PM,37.4,35.6,93,29.85,3.0,ENE,12.7,-,0.00,Rain,Light Rain,70,2013-03-16 02:01:00
10:09 PM,37.4,35.6,93,29.85,3.0,East,11.5,-,0.01,Rain,Light Rain,80,2013-03-16 02:09:00
10:21 PM,37.4,35.6,93,29.85,4.0,East,9.2,-,0.01,Rain,Light Rain,80,2013-03-16 02:21:00
10:52 PM,36.0,34.0,93,29.86,3.0,East,6.9,-,0.02,Rain,Light Rain,90,2013-03-16 02:52:00
11:13 PM,35.6,35.6,100,29.84,2.5,East,5.8,-,0.00,Rain,Light Rain,90,2013-03-16 03:13:00
11:35 PM,35.6,33.8,93,29.84,3.0,East,6.9,-,0.00,Rain,Light Rain,90,2013-03-16 03:35:00
11:52 PM,35.1,33.1,92,29.85,3.0,East,6.9,-,0.01,Rain,Light Rain,100,2013-03-16 03:52:00